Overview Statistics Trail Chart Weather Telemetry Raw packets
 

This is the latest recevied weather packets stored in our database for station/object IW2NTF-3. If no packets are shown the sender has not sent any weather packets the latest 10 day(s).

<< 30 31 32 33 34 35 36 >>
Time Temp. Humidity Pressure Rain* Wind** Luminosity Snow
1788678603 25.56° C 72% 1022.3 hPa 0 mm - 334 W/m² -
1788678544 25.56° C 72% 1022.3 hPa 0 mm - 334 W/m² -
1788678484 25.56° C 72% 1022.3 hPa 0 mm - 334 W/m² -
1788678423 25.56° C 72% 1022.3 hPa 0 mm - 332 W/m² -
1788678363 25.56° C 72% 1022.2 hPa 0 mm - 329 W/m² -
1788678303 25.56° C 72% 1022.2 hPa 0 mm - 332 W/m² -
1788678243 25.56° C 73% 1022.2 hPa 0 mm - 327 W/m² -
1788678183 25.56° C 73% 1022.3 hPa 0 mm - 316 W/m² -
1788678123 25.56° C 73% 1022.3 hPa 0 mm - 309 W/m² -
1788678063 25.56° C 72% 1022.3 hPa 0 mm - 311 W/m² -
1788678004 25.56° C 73% 1022.3 hPa 0 mm - 283 W/m² -
1788677943 25.56° C 73% 1022.1 hPa 0 mm - 186 W/m² -
1788677883 25.56° C 73% 1022.2 hPa 0 mm - 209 W/m² -
1788677823 25.56° C 73% 1022.2 hPa 0 mm - 299 W/m² -
1788677763 25.56° C 73% 1022.2 hPa 0 mm - 297 W/m² -
1788677704 25.56° C 73% 1022.1 hPa 0 mm - 292 W/m² -
1788677652 25.56° C 73% 1022.1 hPa 0 mm - 290 W/m² -
1788677583 25.56° C 73% 1022.1 hPa 0 mm - 287 W/m² -
1788677523 25.56° C 73% 1022.1 hPa 0 mm - 162 W/m² -
1788677463 25.56° C 73% 1022.1 hPa 0 mm - 114 W/m² -
1788677403 25.56° C 73% 1022.2 hPa 0 mm - 146 W/m² -
1788677343 25.56° C 73% 1022.2 hPa 0 mm - 237 W/m² -
1788677283 25.56° C 73% 1022.1 hPa 0 mm - 262 W/m² -
1788677223 25.56° C 73% 1022.1 hPa 0 mm - 264 W/m² -
1788677163 25.56° C 73% 1022 hPa 0 mm - 267 W/m² -

* Rain latest hour (hover to see other rain measurements)
** Current wind speed in m/s (hover to see current wind gust speed)